Torna al catalogo

SL-12 DEB

AttivoHEO
NORAD 44982·DEBRIS·🇷🇺 Russia

Lanciato Dec 25, 2006 da Baikonur Cosmodrome

Loading…

Prossimi Passaggi (prossime 24 ore)

TLE

AggiornatoSource: Space-Track

Epoca: Sep 9, 2026, 03:54 UTC

1 44982U 06062S   26252.16283448  .00000501  00000-0  52971-2 0  9996
2 44982  65.0144 332.7721 5569836 265.4610  32.4830  4.28267443107154

Traccia SL-12 DEB in tempo reale con AllMySat

Download on the App Store